C/2013 X1 ( PanSTARRS )

Japanese version
Home page
Updated on November 13, 2016

---------------------------------------------------------------------

* Profile

Discovery Date December 4, 2013
Magnitude 20.2 mag
Discoverer Pan-STARRS 1 telescope (Haleakala)

* Pictures

* Orbital Elements

Epoch 2016 Apr. 2.0 TT = JDT 2457480.5
T 2016 Apr. 20.72559 TT                                 MPCW
q   1.3142771            (2000.0)            P               Q
z  -0.0007544      Peri.  164.45766     +0.82526326     -0.52102639
                   Node   130.95579     -0.54401900     -0.62985957
e   1.0009915      Incl.  163.23174     -0.15160434     -0.57602814
From 2898 observations 2014 Jan. 28-2016 Oct. 5, mean residual 0".6.
     Nongravitational parameters A1 = +1.86, A2 = +0.3432.

* Finding Charts

* Magnitudes Graph

        m1 = 5.5 + 5 log d + 10.0 log r  [    ,-290]  (             - 2015 July  5)
        m1 = 4.0 + 5 log d + 12.5 log r  [-290, -66]  (2015 July  5 - 2016 Feb. 14)
        m1 = 5.6 + 5 log d +  5.0 log r  [ -66,   0]  (2016 Feb. 14 - 2016 Apr. 20)
        m1 = 5.0 + 5 log d + 10.0 log r  [   0,  60]  (2016 Apr. 20 - 2016 June 19)
        m1 = 3.0 + 5 log d + 20.0 log r  [  60,    ]  (2016 June 19 -             )

---------------------------------------------------------------------

The orbital elements are published on M.P.E.C. 2016-U66.
The charts are made with StellaNavigator Ver.8 (AstroArts).
The magnitudes graphs are made with Comet for Windows.

---------------------------------------------------------------------

Copyright(C) Seiichi Yoshida (comet@aerith.net). All rights reserved.